| time (UTC) | temp F | wind direction | speed knots | gust knots | rain 1hr in | rain 24hr in | rain mn in | humidity % | barometer mb |
| 20260507151958 | 55 | 250 | 1.7 | 5.2 | 0.00 | 0.48 | 0.00 | 1 | 1008.5 |
| 20260507151459 | 55 | 46 | 1.7 | 5.2 | 0.00 | 0.48 | 0.00 | 1 | 1008.5 |
| 20260507150959 | 54 | 165 | 1.7 | 5.2 | 0.00 | 0.48 | 0.00 | 1 | 1008.5 |
| 20260507150500 | 54 | 237 | 2.6 | 7.0 | 0.00 | 0.48 | 0.00 | 1 | 1008.6 |
| 20260507145958 | 54 | 223 | 1.7 | 7.0 | 0.00 | 0.48 | 0.00 | 1 | 1008.5 |
| 20260507145457 | 54 | 246 | 1.7 | 6.1 | 0.00 | 0.48 | 0.00 | 1 | 1008.6 |
| 20260507144958 | 54 | 269 | 1.7 | 6.1 | 0.00 | 0.48 | 0.00 | 1 | 1008.6 |
| 20260507144458 | 54 | 1 | 1.7 | 5.2 | 0.00 | 0.48 | 0.00 | 1 | 1008.6 |
| 20260507143958 | 53 | 269 | 1.7 | 7.0 | 0.00 | 0.48 | 0.00 | 1 | 1008.4 |
| 20260507143457 | 53 | 28 | 1.7 | 7.0 | 0.00 | 0.48 | 0.00 | 1 | 1008.6 |
| 20260507142958 | 52 | 338 | 1.7 | 6.1 | 0.00 | 0.48 | 0.00 | 1 | 1008.5 |
| 20260507142457 | 52 | 1 | 1.7 | 4.3 | 0.00 | 0.48 | 0.00 | 1 | 1008.6 |
| 20260507141959 | 51 | 210 | 1.7 | 7.0 | 0.00 | 0.48 | 0.00 | 1 | 1008.6 |
| 20260507141457 | 51 | 193 | 1.7 | 7.0 | 0.00 | 0.48 | 0.00 | 1 | 1008.5 |
| 20260507140958 | 51 | 322 | 1.7 | 6.1 | 0.00 | 0.48 | 0.00 | 1 | 1008.4 |
| 20260507140459 | 50 | 331 | 1.7 | 6.1 | 0.00 | 0.48 | 0.00 | 1 | 1008.6 |
| 20260507140001 | 50 | 314 | 1.7 | 6.1 | 0.00 | 0.48 | 0.00 | 1 | 1008.6 |
| 20260507135459 | 50 | 277 | 1.7 | 6.1 | 0.00 | 0.48 | 0.00 | 1 | 1008.5 |
| 20260507134959 | 50 | 252 | 1.7 | 5.2 | 0.00 | 0.48 | 0.00 | 1 | 1008.6 |
| 20260507134459 | 50 | 211 | 1.7 | 4.3 | 0.00 | 0.48 | 0.00 | 1 | 1008.5 |
| 20260507133959 | 49 | 236 | 1.7 | 5.2 | 0.00 | 0.48 | 0.00 | 1 | 1008.5 |
| 20260507133459 | 49 | 227 | 1.7 | 6.1 | 0.00 | 0.48 | 0.00 | 1 | 1008.5 |
| 20260507133001 | 49 | 255 | 1.7 | 6.1 | 0.00 | 0.48 | 0.00 | 1 | 1008.5 |
| 20260507132459 | 48 | 331 | 1.7 | 4.3 | 0.00 | 0.48 | 0.00 | 1 | 1008.5 |
| 20260507131958 | 48 | 306 | 1.7 | 7.8 | 0.00 | 0.48 | 0.00 | 1 | 1008.6 |
| 20260507131001 | 47 | 220 | 0.9 | 6.1 | 0.00 | 0.48 | 0.00 | 1 | 1008.8 |
| 20260507130457 | 46 | 324 | 0.9 | 2.6 | 0.00 | 0.48 | 0.00 | 1 | 1008.9 |
| 20260507130001 | 46 | 227 | 0.9 | 2.6 | 0.00 | 0.48 | 0.00 | 1 | 1008.9 |
| 20260507125458 | 46 | 145 | 0.9 | 3.5 | 0.00 | 0.48 | 0.00 | 1 | 1008.9 |
| 20260507124959 | 46 | 252 | 0.9 | 3.5 | 0.00 | 0.48 | 0.00 | 1 | 1008.9 |
| 20260507124459 | 45 | 40 | 0.9 | 2.6 | 0.00 | 0.48 | 0.00 | 1 | 1008.9 |
| 20260507123959 | 45 | 314 | 0.9 | 4.3 | 0.00 | 0.48 | 0.00 | 1 | 1008.8 |
| 20260507123002 | 44 | 63 | 0.9 | 2.6 | 0.00 | 0.48 | 0.00 | 1 | 1008.6 |
| 20260507122505 | 44 | 63 | 0.9 | 2.6 | 0.00 | 0.48 | 0.00 | 1 | 1008.6 |
| 20260507121501 | 43 | 300 | 0.9 | 2.6 | 0.00 | 0.48 | 0.00 | 1 | 1008.6 |
| 20260507121001 | 43 | 46 | 0.9 | 4.3 | 0.00 | 0.48 | 0.00 | 1 | 1008.6 |
| 20260507120001 | 42 | 1 | 0.0 | 1.7 | 0.00 | 0.48 | 0.00 | 1 | 1008.6 |
| 20260507115459 | 42 | 46 | 0.0 | 0.9 | 0.00 | 0.48 | 0.00 | 1 | 1008.8 |
| 20260507115000 | 42 | 1 | 0.0 | 0.9 | 0.00 | 0.48 | 0.00 | 1 | 1008.9 |
| 20260507114501 | 41 | 28 | 0.0 | 0.9 | 0.00 | 0.48 | 0.00 | 1 | 1008.8 |
| 20260507113958 | 41 | 314 | 0.0 | 1.7 | 0.00 | 0.48 | 0.00 | 1 | 1008.9 |
| 20260507113458 | 41 | 89 | 0.0 | 1.7 | 0.00 | 0.48 | 0.00 | 1 | 1008.8 |
| 20260507111958 | 41 | 46 | 0.0 | 0.9 | 0.00 | 0.48 | 0.00 | 1 | 1008.8 |
| 20260507111459 | 41 | 89 | 0.0 | 0.9 | 0.00 | 0.48 | 0.00 | 1 | 1008.8 |
| 20260507110458 | 41 | 20 | 0.0 | 1.7 | 0.00 | 0.48 | 0.00 | 1 | 1008.9 |
| 20260507105958 | 41 | 46 | 0.0 | 0.9 | 0.00 | 0.48 | 0.00 | 1 | 1008.9 |
| 20260507105458 | 41 | 178 | 0.0 | 0.9 | 0.00 | 0.48 | 0.00 | 1 | 1008.9 |
| 20260507104958 | 41 | 223 | 0.0 | 1.7 | 0.00 | 0.48 | 0.00 | 1 | 1008.9 |
| 20260507104457 | 41 | 269 | 0.0 | 1.7 | 0.00 | 0.48 | 0.00 | 1 | 1008.8 |
| 20260507103958 | 41 | 223 | 0.0 | 0.9 | 0.00 | 0.48 | 0.00 | 1 | 1008.7 |
| 20260507103457 | 41 | 269 | 0.0 | 0.9 | 0.00 | 0.48 | 0.00 | 1 | 1008.7 |
| 20260507102957 | 41 | 223 | 0.0 | 0.9 | 0.00 | 0.48 | 0.00 | 1 | 1008.6 |
| 20260507102458 | 42 | 178 | 0.0 | 0.9 | 0.00 | 0.48 | 0.00 | 1 | 1008.6 |
| 20260507101957 | 42 | 269 | 0.0 | 0.9 | 0.00 | 0.48 | 0.00 | 1 | 1008.6 |
| 20260507100958 | 42 | 269 | 0.0 | 1.7 | 0.00 | 0.48 | 0.00 | 1 | 1008.7 |
| 20260507100000 | 42 | 295 | 0.0 | 0.9 | 0.00 | 0.48 | 0.00 | 1 | 1008.6 |
| 20260507095459 | 42 | 269 | 0.0 | 0.9 | 0.00 | 0.48 | 0.00 | 1 | 1008.8 |
| 20260507095000 | 43 | 223 | 0.0 | 0.9 | 0.00 | 0.48 | 0.00 | 1 | 1008.7 |
| 20260507093959 | 43 | 241 | 0.0 | 0.9 | 0.00 | 0.48 | 0.00 | 1 | 1008.8 |
| 20260507093458 | 43 | 46 | 0.0 | 0.9 | 0.00 | 0.48 | 0.00 | 1 | 1008.8 |
| 20260507092959 | 43 | 314 | 0.9 | 0.9 | 0.00 | 0.48 | 0.00 | 1 | 1008.7 |
| 20260507092459 | 43 | 269 | 0.9 | 0.9 | 0.00 | 0.48 | 0.00 | 1 | 1009.0 |
| 20260507091958 | 43 | 269 | 0.0 | 0.9 | 0.00 | 0.48 | 0.00 | 1 | 1008.9 |
| 20260507091459 | 44 | 46 | 0.0 | 0.9 | 0.00 | 0.48 | 0.00 | 1 | 1009.1 |
| 20260507090959 | 44 | 46 | 0.0 | 0.9 | 0.00 | 0.48 | 0.00 | 1 | 1009.0 |
| 20260507090500 | 44 | 28 | 0.0 | 1.7 | 0.00 | 0.48 | 0.00 | 1 | 1009.0 |
| 20260507085959 | 44 | 223 | 0.0 | 1.7 | 0.00 | 0.48 | 0.00 | 1 | 1008.9 |
| 20260507085457 | 44 | 269 | 0.0 | 0.9 | 0.00 | 0.48 | 0.00 | 1 | 1008.6 |
| 20260507084958 | 44 | 206 | 0.0 | 1.7 | 0.00 | 0.48 | 0.00 | 1 | 1008.6 |
| 20260507084458 | 44 | 46 | 0.0 | 1.7 | 0.00 | 0.48 | 0.00 | 1 | 1008.6 |
| 20260507084003 | 44 | 314 | 0.0 | 0.9 | 0.00 | 0.48 | 0.00 | 1 | 1008.6 |
| 20260507083502 | 44 | 1 | 0.0 | 0.9 | 0.00 | 0.48 | 0.00 | 1 | 1008.9 |
| 20260507082957 | 44 | 269 | 0.0 | 0.9 | 0.00 | 0.48 | 0.00 | 1 | 1008.8 |
| 20260507082458 | 45 | 46 | 0.0 | 0.9 | 0.00 | 0.48 | 0.00 | 1 | 1008.7 |
| 20260507081958 | 45 | 314 | 0.0 | 0.9 | 0.00 | 0.48 | 0.00 | 1 | 1008.5 |
| 20260507081458 | 45 | 314 | 0.0 | 0.9 | 0.00 | 0.48 | 0.00 | 1 | 1008.5 |
| 20260507080958 | 45 | 223 | 0.0 | 0.9 | 0.00 | 0.48 | 0.00 | 1 | 1008.3 |
| 20260507080458 | 45 | 1 | 0.0 | 1.7 | 0.00 | 0.48 | 0.00 | 1 | 1008.5 |
| 20260507075958 | 45 | 1 | 0.0 | 1.7 | 0.00 | 0.48 | 0.00 | 1 | 1008.7 |
| 20260507075459 | 45 | 46 | 0.0 | 0.9 | 0.00 | 0.48 | 0.00 | 1 | 1008.8 |
| 20260507074958 | 45 | 46 | 0.0 | 0.9 | 0.00 | 0.48 | 0.00 | 1 | 1008.6 |
| 20260507074457 | 45 | 314 | 0.0 | 1.7 | 0.00 | 0.48 | 0.00 | 1 | 1008.5 |
| 20260507073957 | 45 | 223 | 0.0 | 1.7 | 0.00 | 0.48 | 0.00 | 1 | 1008.4 |
| 20260507073458 | 45 | 241 | 0.9 | 1.7 | 0.00 | 0.48 | 0.00 | 1 | 1008.3 |
| 20260507072958 | 45 | 269 | 0.9 | 1.7 | 0.00 | 0.48 | 0.00 | 1 | 1008.5 |
| 20260507072457 | 46 | 269 | 0.9 | 1.7 | 0.00 | 0.48 | 0.00 | 1 | 1008.3 |
| 20260507071958 | 46 | 269 | 0.9 | 1.7 | 0.00 | 0.48 | 0.00 | 1 | 1007.9 |
| 20260507071457 | 46 | 314 | 0.9 | 1.7 | 0.00 | 0.48 | 0.00 | 1 | 1007.9 |
| 20260507070957 | 46 | 269 | 0.9 | 1.7 | 0.00 | 0.48 | 0.00 | 1 | 1007.8 |
| 20260507070457 | 46 | 234 | 0.9 | 1.7 | 0.00 | 0.48 | 0.00 | 1 | 1007.8 |
| 20260507070000 | 46 | 237 | 0.9 | 2.6 | 0.00 | 0.48 | 0.00 | 1 | 1007.7 |
| 20260507065457 | 46 | 213 | 0.9 | 2.6 | 0.00 | 0.48 | 0.00 | 1 | 1007.7 |
| 20260507064457 | 46 | 15 | 0.0 | 0.9 | 0.00 | 0.48 | 0.00 | 1 | 1007.7 |
| 20260507063958 | 46 | 46 | 0.0 | 1.7 | 0.00 | 0.48 | 0.00 | 1 | 1008.1 |
| 20260507062957 | 46 | 223 | 0.0 | 0.9 | 0.00 | 0.48 | 0.00 | 1 | 1008.1 |
| 20260507062456 | 46 | 206 | 0.0 | 0.9 | 0.00 | 0.48 | 0.00 | 1 | 1007.9 |
| 20260507061956 | 46 | 46 | 0.9 | 2.6 | 0.00 | 0.48 | 0.00 | 1 | 1008.0 |
| 20260507061457 | 47 | 245 | 0.9 | 2.6 | 0.00 | 0.48 | 0.00 | 1 | 1008.1 |
| 20260507060958 | 47 | 269 | 0.9 | 1.7 | 0.00 | 0.48 | 0.00 | 1 | 1008.0 |
| 20260507060458 | 47 | 241 | 0.9 | 1.7 | 0.00 | 0.48 | 0.00 | 1 | 1008.1 |
| 20260507055956 | 47 | 178 | 0.0 | 1.7 | 0.00 | 0.48 | 0.00 | 1 | 1007.9 |
| 20260507055456 | 47 | 314 | 0.9 | 3.5 | 0.00 | 0.48 | 0.00 | 1 | 1008.0 |
| 20260507054956 | 47 | 223 | 1.7 | 3.5 | 0.00 | 0.48 | 0.00 | 1 | 1008.2 |
| 20260507054456 | 47 | 253 | 1.7 | 4.3 | 0.00 | 0.48 | 0.00 | 1 | 1008.3 |
| 20260507053957 | 47 | 210 | 1.7 | 4.3 | 0.00 | 0.48 | 0.00 | 1 | 1008.4 |
| 20260507053456 | 47 | 295 | 1.7 | 5.2 | 0.00 | 0.48 | 0.00 | 1 | 1008.4 |
| 20260507052956 | 47 | 269 | 0.9 | 2.6 | 0.00 | 0.48 | 0.00 | 1 | 1008.1 |
| 20260507052457 | 47 | 208 | 0.9 | 2.6 | 0.00 | 0.48 | 0.00 | 1 | 1008.1 |
| 20260507051957 | 47 | 178 | 0.9 | 1.7 | 0.00 | 0.48 | 0.00 | 1 | 1008.1 |
| 20260507051456 | 47 | 269 | 0.9 | 2.6 | 0.00 | 0.48 | 0.00 | 1 | 1008.1 |
| 20260507050457 | 47 | 250 | 0.0 | 1.7 | 0.00 | 0.48 | 0.00 | 1 | 1008.1 |
| 20260507045500 | 48 | 269 | 0.0 | 0.9 | 0.00 | 0.48 | 0.00 | 1 | 1008.0 |
| 20260507045001 | 48 | 89 | 0.0 | 1.7 | 0.00 | 0.48 | 0.00 | 1 | 1007.8 |
| 20260507043500 | 48 | 213 | 0.9 | 2.6 | 0.00 | 0.48 | 0.00 | 1 | 1008.0 |
| 20260507042500 | 48 | 234 | 0.9 | 2.6 | 0.01 | 0.48 | 0.00 | 1 | 1008.1 |
| 20260507042001 | 48 | 250 | 0.9 | 1.7 | 0.01 | 0.48 | 0.00 | 1 | 1007.9 |
| 20260507041000 | 49 | 295 | 0.9 | 1.7 | 0.01 | 0.48 | 0.00 | 1 | 1008.0 |
| 20260507040006 | 49 | 219 | 0.9 | 2.6 | 0.01 | 0.48 | 0.00 | 1 | 1007.8 |
| 20260507035501 | 49 | 269 | 0.9 | 2.6 | 0.01 | 0.48 | 0.48 | 1 | 1007.7 |
| 20260507035001 | 49 | 201 | 1.7 | 4.3 | 0.01 | 0.48 | 0.48 | 1 | 1007.9 |
| 20260507034500 | 49 | 223 | 0.9 | 4.3 | 0.01 | 0.48 | 0.48 | 1 | 1007.9 |
| 20260507034001 | 49 | 250 | 0.9 | 2.6 | 0.01 | 0.48 | 0.48 | 1 | 1007.9 |
| 20260507032500 | 50 | 253 | 0.9 | 1.7 | 0.01 | 0.47 | 0.47 | 1 | 1007.9 |
| 20260507031959 | 50 | 223 | 0.9 | 2.6 | 0.01 | 0.47 | 0.47 | 1 | 1007.7 |
| 20260507031500 | 50 | 199 | 0.9 | 4.3 | 0.01 | 0.47 | 0.47 | 1 | 1007.8 |
| 20260507031000 | 50 | 213 | 0.9 | 4.3 | 0.01 | 0.47 | 0.47 | 1 | 1007.7 |
| 20260507030459 | 50 | 195 | 1.7 | 3.5 | 0.01 | 0.47 | 0.47 | 1 | 1007.8 |
| 20260507025000 | 51 | 269 | 0.9 | 3.5 | 0.01 | 0.47 | 0.47 | 1 | 1007.8 |
| 20260507024501 | 51 | 241 | 0.9 | 3.5 | 0.01 | 0.47 | 0.47 | 1 | 1007.8 |
| 20260507024000 | 51 | 223 | 0.9 | 2.6 | 0.02 | 0.47 | 0.47 | 1 | 1007.8 |
| 20260507023500 | 51 | 231 | 0.9 | 2.6 | 0.02 | 0.47 | 0.47 | 1 | 1007.8 |
| 20260507023001 | 51 | 241 | 0.9 | 3.5 | 0.01 | 0.46 | 0.46 | 1 | 1007.8 |
| 20260507021959 | 52 | 234 | 1.7 | 3.5 | 0.02 | 0.46 | 0.46 | 1 | 1007.8 |
| 20260507021500 | 52 | 262 | 1.7 | 3.5 | 0.02 | 0.46 | 0.46 | 1 | 1007.7 |
| 20260507020500 | 53 | 314 | 1.7 | 7.0 | 0.02 | 0.46 | 0.46 | 1 | 1007.8 |
| 20260507015000 | 54 | 269 | 0.9 | 3.5 | 0.02 | 0.46 | 0.46 | 1 | 1007.5 |
| 20260507014501 | 54 | 206 | 1.7 | 4.3 | 0.01 | 0.45 | 0.45 | 1 | 1007.3 |
| 20260507014000 | 55 | 259 | 1.7 | 4.3 | 0.01 | 0.45 | 0.45 | 1 | 1007.4 |
| 20260507013501 | 55 | 241 | 1.7 | 2.6 | 0.01 | 0.45 | 0.45 | 1 | 1007.4 |
| 20260507013000 | 55 | 250 | 0.9 | 2.6 | 0.02 | 0.45 | 0.45 | 1 | 1007.4 |
| 20260507012500 | 55 | 234 | 0.9 | 3.5 | 0.02 | 0.45 | 0.45 | 1 | 1007.1 |
| 20260507011500 | 56 | 213 | 0.9 | 2.6 | 0.01 | 0.44 | 0.44 | 1 | 1006.8 |
| 20260507011000 | 56 | 269 | 0.9 | 2.6 | 0.01 | 0.44 | 0.44 | 1 | 1006.9 |
| 20260507010500 | 56 | 300 | 0.9 | 2.6 | 0.01 | 0.44 | 0.44 | 1 | 1006.8 |
| 20260507005500 | 57 | 253 | 0.9 | 2.6 | 0.02 | 0.44 | 0.44 | 1 | 1006.8 |
| 20260507005009 | 57 | 241 | 0.9 | 2.6 | 0.06 | 0.44 | 0.44 | 1 | 1006.5 |
| 20260507004504 | 57 | 46 | 0.9 | 2.6 | 0.09 | 0.44 | 0.44 | 1 | 1006.5 |
| 20260507004003 | 58 | 33 | 0.0 | 1.7 | 0.16 | 0.44 | 0.44 | 1 | 1006.4 |
| 20260507003501 | 58 | 241 | 0.0 | 1.7 | 0.22 | 0.44 | 0.44 | 1 | 1006.3 |
| 20260507003000 | 58 | 250 | 0.0 | 1.7 | 0.23 | 0.43 | 0.43 | 1 | 1006.1 |
| 20260507002000 | 59 | 46 | 0.9 | 3.5 | 0.23 | 0.43 | 0.43 | 1 | 1006.0 |
| 20260507001502 | 59 | 46 | 0.9 | 3.5 | 0.23 | 0.43 | 0.43 | 1 | 1006.0 |
| 20260507001000 | 59 | 220 | 0.9 | 2.6 | 0.23 | 0.43 | 0.43 | 1 | 1005.8 |
| 20260507000500 | 60 | 237 | 0.9 | 4.3 | 0.23 | 0.43 | 0.43 | 1 | 1005.6 |
| 20260507000003 | 60 | 201 | 0.9 | 4.3 | 0.22 | 0.42 | 0.42 | 1 | 1005.3 |
| 20260506235500 | 60 | 215 | 0.9 | 3.5 | 0.22 | 0.42 | 0.42 | 1 | 1005.2 |
| 20260506234959 | 60 | 165 | 0.9 | 1.7 | 0.18 | 0.38 | 0.38 | 1 | 1005.1 |
| 20260506234500 | 60 | 1 | 0.9 | 1.7 | 0.15 | 0.35 | 0.35 | 1 | 1004.9 |
| 20260506234001 | 60 | 314 | 0.9 | 1.7 | 0.08 | 0.28 | 0.28 | 1 | 1004.9 |
| 20260506233459 | 60 | 1 | 0.9 | 1.7 | 0.02 | 0.22 | 0.22 | 1 | 1004.7 |
| 20260506233001 | 60 | 89 | 0.0 | 1.7 | 0.00 | 0.20 | 0.20 | 1 | 1004.6 |
| 20260506232500 | 60 | 28 | 0.0 | 0.9 | 0.00 | 0.20 | 0.20 | 1 | 1004.6 |
| 20260506232001 | 60 | 1 | 0.0 | 1.7 | 0.00 | 0.20 | 0.20 | 1 | 1004.6 |
| 20260506231500 | 60 | 46 | 0.0 | 1.7 | 0.00 | 0.20 | 0.20 | 1 | 1004.6 |
| 20260506230500 | 61 | 35 | 0.9 | 2.6 | 0.00 | 0.20 | 0.20 | 1 | 1004.6 |
| 20260506225500 | 61 | 1 | 0.9 | 1.7 | 0.00 | 0.20 | 0.20 | 1 | 1004.6 |
| 20260506225000 | 61 | 46 | 0.9 | 1.7 | 0.00 | 0.20 | 0.20 | 1 | 1004.6 |
| 20260506224500 | 61 | 13 | 0.9 | 1.7 | 0.00 | 0.20 | 0.20 | 1 | 1004.5 |
| 20260506223501 | 61 | 331 | 0.9 | 1.7 | 0.00 | 0.20 | 0.20 | 1 | 1004.6 |
| 20260506221500 | 61 | 51 | 1.7 | 2.6 | 0.00 | 0.20 | 0.20 | 1 | 1004.6 |
| 20260506221000 | 62 | 56 | 1.7 | 7.0 | 0.00 | 0.20 | 0.20 | 1 | 1004.5 |
| 20260506220501 | 62 | 178 | 1.7 | 6.1 | 0.00 | 0.20 | 0.20 | 1 | 1004.6 |
| 20260506215500 | 62 | 46 | 1.7 | 7.8 | 0.00 | 0.20 | 0.20 | 1 | 1004.5 |
| 20260506214459 | 62 | 193 | 1.7 | 5.2 | 0.00 | 0.20 | 0.20 | 1 | 1004.5 |
| 20260506213959 | 62 | 146 | 0.9 | 3.5 | 0.00 | 0.20 | 0.20 | 1 | 1004.5 |
| 20260506213459 | 62 | 314 | 1.7 | 2.6 | 0.00 | 0.20 | 0.20 | 1 | 1004.5 |
| 20260506212500 | 62 | 130 | 1.7 | 4.3 | 0.00 | 0.20 | 0.20 | 1 | 1004.6 |
| 20260506211500 | 62 | 178 | 1.7 | 7.8 | 0.00 | 0.20 | 0.20 | 1 | 1004.6 |
| 20260506210459 | 61 | 89 | 1.7 | 5.2 | 0.01 | 0.20 | 0.20 | 1 | 1004.8 |
| 20260506210004 | 62 | 81 | 1.7 | 7.0 | 0.01 | 0.20 | 0.20 | 1 | 1004.8 |
| 20260506205000 | 61 | 20 | 1.7 | 5.2 | 0.01 | 0.20 | 0.20 | 1 | 1004.9 |
| 20260506204500 | 61 | 218 | 1.7 | 7.0 | 0.01 | 0.20 | 0.20 | 1 | 1004.9 |
| 20260506204000 | 62 | 46 | 0.9 | 4.3 | 0.01 | 0.20 | 0.20 | 1 | 1004.9 |
| 20260506203501 | 62 | 100 | 1.7 | 4.3 | 0.01 | 0.20 | 0.20 | 1 | 1005.0 |
| 20260506203002 | 62 | 178 | 1.7 | 5.2 | 0.01 | 0.20 | 0.20 | 1 | 1004.9 |
| 20260506202502 | 62 | 178 | 0.9 | 6.1 | 0.02 | 0.20 | 0.20 | 1 | 1005.0 |
| 20260506202000 | 62 | 1 | 0.9 | 6.1 | 0.03 | 0.20 | 0.20 | 1 | 1005.1 |
| 20260506201500 | 62 | 63 | 0.9 | 4.3 | 0.03 | 0.20 | 0.20 | 1 | 1005.1 |
| 20260506201000 | 62 | 1 | 0.9 | 4.3 | 0.04 | 0.20 | 0.20 | 1 | 1005.2 |
| 20260506200000 | 62 | 28 | 0.9 | 1.7 | 0.04 | 0.19 | 0.19 | 1 | 1005.2 |
| 20260506195459 | 62 | 46 | 0.9 | 2.6 | 0.04 | 0.19 | 0.19 | 1 | 1005.3 |
| 20260506194959 | 62 | 324 | 0.9 | 2.6 | 0.04 | 0.19 | 0.19 | 1 | 1005.4 |
| 20260506194459 | 62 | 35 | 0.9 | 1.7 | 0.05 | 0.19 | 0.19 | 1 | 1005.5 |
| 20260506193959 | 62 | 331 | 0.9 | 1.7 | 0.05 | 0.19 | 0.19 | 1 | 1005.6 |
| 20260506193459 | 62 | 295 | 0.9 | 1.7 | 0.05 | 0.19 | 0.19 | 1 | 1005.6 |
| 20260506192959 | 62 | 1 | 0.9 | 2.6 | 0.06 | 0.19 | 0.19 | 1 | 1005.7 |
| 20260506192459 | 62 | 89 | 0.9 | 2.6 | 0.05 | 0.18 | 0.18 | 1 | 1005.8 |
| 20260506191959 | 62 | 314 | 0.9 | 2.6 | 0.05 | 0.17 | 0.17 | 1 | 1005.9 |
| 20260506191500 | 62 | 46 | 0.9 | 2.6 | 0.06 | 0.17 | 0.17 | 1 | 1005.8 |
| 20260506191000 | 62 | 1 | 0.9 | 2.6 | 0.05 | 0.16 | 0.16 | 1 | 1005.8 |
| 20260506190500 | 62 | 25 | 0.9 | 2.6 | 0.05 | 0.15 | 0.15 | 1 | 1005.8 |
| 20260506185959 | 62 | 314 | 0.9 | 3.5 | 0.05 | 0.15 | 0.15 | 1 | 1005.9 |
| 20260506185458 | 62 | 35 | 0.9 | 4.3 | 0.06 | 0.15 | 0.15 | 1 | 1005.9 |
| 20260506184959 | 62 | 331 | 1.7 | 5.2 | 0.07 | 0.15 | 0.15 | 1 | 1005.9 |
| 20260506184458 | 63 | 89 | 1.7 | 6.1 | 0.07 | 0.14 | 0.14 | 1 | 1006.1 |
| 20260506183957 | 63 | 173 | 0.9 | 3.5 | 0.08 | 0.14 | 0.14 | 1 | 1006.1 |
| 20260506183457 | 63 | 117 | 0.9 | 4.3 | 0.08 | 0.14 | 0.14 | 1 | 1006.1 |
| 20260506182959 | 63 | 295 | 1.7 | 6.1 | 0.08 | 0.13 | 0.13 | 1 | 1005.9 |
| 20260506182459 | 63 | 152 | 1.7 | 6.1 | 0.09 | 0.13 | 0.13 | 1 | 1006.5 |
| 20260506181957 | 63 | 223 | 1.7 | 7.8 | 0.08 | 0.12 | 0.12 | 1 | 1006.6 |
| 20260506181458 | 63 | 121 | 1.7 | 5.2 | 0.08 | 0.11 | 0.11 | 1 | 1006.6 |
| 20260506180958 | 63 | 1 | 0.9 | 4.3 | 0.09 | 0.11 | 0.11 | 1 | 1006.8 |
| 20260506180458 | 63 | 120 | 0.9 | 3.5 | 0.08 | 0.10 | 0.10 | 1 | 1006.8 |
| 20260506180002 | 63 | 35 | 0.9 | 2.6 | 0.09 | 0.10 | 0.10 | 1 | 1007.0 |
| 20260506175500 | 63 | 20 | 0.9 | 4.3 | 0.08 | 0.09 | 0.09 | 1 | 1007.0 |
| 20260506174459 | 64 | 1 | 0.9 | 3.5 | 0.07 | 0.07 | 0.07 | 1 | 1007.1 |
| 20260506173959 | 64 | 286 | 0.9 | 2.6 | 0.06 | 0.06 | 0.06 | 1 | 1007.1 |
| 20260506173459 | 64 | 35 | 0.9 | 2.6 | 0.06 | 0.06 | 0.06 | 1 | 1007.2 |
| 20260506172500 | 65 | 314 | 0.9 | 1.7 | 0.04 | 0.04 | 0.04 | 1 | 1007.2 |
| 20260506172000 | 65 | 1 | 0.9 | 1.7 | 0.04 | 0.04 | 0.04 | 1 | 1007.2 |
| 20260506171459 | 65 | 35 | 0.9 | 1.7 | 0.03 | 0.03 | 0.03 | 1 | 1007.1 |
| 20260506170500 | 65 | 28 | 0.9 | 1.7 | 0.02 | 0.02 | 0.02 | 1 | 1007.1 |
| 20260506165959 | 66 | 15 | 0.9 | 1.7 | 0.01 | 0.01 | 0.01 | 1 | 1007.1 |
| 20260506165458 | 66 | 1 | 0.9 | 1.7 | 0.01 | 0.01 | 0.01 | 1 | 1007.1 |
| 20260506164459 | 66 | 28 | 0.9 | 2.6 | 0.00 | 0.00 | 0.00 | 1 | 1007.2 |
| 20260506163959 | 66 | 347 | 0.9 | 2.6 | 0.00 | 0.00 | 0.00 | 1 | 1007.2 |
| 20260506162459 | 66 | 117 | 0.9 | 4.3 | 0.00 | 0.00 | 0.00 | 1 | 1007.3 |
| 20260506161959 | 66 | 193 | 1.7 | 5.2 | 0.00 | 0.00 | 0.00 | 1 | 1007.4 |
| 20260506161459 | 66 | 178 | 1.7 | 5.2 | 0.00 | 0.00 | 0.00 | 1 | 1007.4 |
| 20260506160959 | 66 | 135 | 1.7 | 6.1 | 0.00 | 0.00 | 0.00 | 21 | 1007.4 |
| 20260506160459 | 66 | 295 | 1.7 | 6.1 | 0.00 | 0.00 | 0.00 | 21 | 1007.5 |
| 20260506155958 | 66 | 147 | 1.7 | 4.3 | 0.00 | 0.00 | 0.00 | 13 | 1007.5 |
| 20260506155458 | 66 | 113 | 1.7 | 3.5 | 0.00 | 0.00 | 0.00 | 4 | 1007.6 |
| 20260506154958 | 66 | 197 | 1.7 | 7.0 | 0.00 | 0.00 | 0.00 | 8 | 1007.7 |
| 20260506154458 | 66 | 143 | 1.7 | 7.0 | 0.00 | 0.00 | 0.00 | 6 | 1007.8 |
| 20260506153959 | 66 | 46 | 0.9 | 4.3 | 0.00 | 0.00 | 0.00 | 1 | 1008.0 |
| 20260506152959 | 66 | 336 | 1.7 | 6.1 | 0.00 | 0.00 | 0.00 | 3 | 1008.5 |